Weather History for Crockett, TX

Change the Weather History Date:

Sunday, March 23, 2014

  Actual Average (KLFK) Record (KLFK)
Temperature  
Mean Temperature 63 °F 61 °F  
Max Temperature 71 °F 73 °F 92 °F (1929)
Min Temperature 53 °F 49 °F 29 °F (1913)
Degree Days  
Heating Degree Days 2 5  
Month to date heating degree days 173  
Since 1 July heating degree days 1807  
Cooling Degree Days 0 2  
Month to date cooling degree days 25  
Year to date cooling degree days 44  
Growing Degree Days 13 (Base 50)    
Moisture  
Dew Point 53 °F    
Average Humidity 78    
Maximum Humidity 94    
Minimum Humidity 59    
Precipitation  
Precipitation 0.00 in 0.12 in 2.01 in (1983)
Month to date precipitation 2.86  
Year to date precipitation 10.91  
Snow  
Snow 0.00 in - - ()
Month to date snowfall  
Since 1 July snowfall  
Snow Depth -    
Sea Level Pressure  
Sea Level Pressure 30.19 in    
Wind  
Wind Speed 7 mph (North)    
Max Wind Speed 18 mph    
Max Gust Speed 25 mph    
Visibility 9 miles    
Events Thunderstorm    
T = Trace of Precipitation, MM = Missing Value Source: NWS Daily Summary

Daily Weather History Graph

Daily Weather History Graph

Search for Another Location

Airport:

Trip Planner

Search our weather history database for the weather conditions in past years. The results will help you decide how hot, cold, wet, or windy it might be!

Date:

Astronomy

Mar. 23, 2014 Rise Set
Actual Time 7:21 AM CDT 7:35 PM CDT
Civil Twilight 6:57 AM CDT 7:59 PM CDT
Nautical Twilight 6:29 AM CDT 8:27 PM CDT
Astronomical Twilight 6:00 AM CDT 8:56 PM CDT
Moon 1:34 AM CDT (3/23) 12:21 PM CDT (3/23)
Length of Visible Light 13h 02m
Length of Day
12h 13m
Waning Gibbous, 54% of the Moon is Illuminated
Mar 23
Waning Gibbous
Mar 23
Last Quarter
Mar 30
New
Apr 7
First Quarter
Apr 15
Full

Hourly Weather History & Observations

Time (CDT) Temp. Dew Point Humidity Pressure Visibility Wind Dir Wind Speed Gust Speed Precip Events Conditions
12:15 AM 71.6 °F 69.8 °F 94% 30.02 in 6.0 mi NW 6.9 mph - N/A   Overcast
12:35 AM 69.8 °F 66.2 °F 88% 30.03 in 5.0 mi NW 9.2 mph - N/A   Overcast
12:55 AM 68.0 °F 64.4 °F 88% 30.03 in 8.0 mi Calm Calm - N/A   Overcast
1:15 AM 66.2 °F 64.4 °F 94% 30.05 in 8.0 mi WNW 5.8 mph - N/A   Overcast
1:35 AM 66.2 °F 62.6 °F 88% 30.05 in 10.0 mi NW 5.8 mph - N/A   Overcast
1:55 AM 64.4 °F 60.8 °F 88% 30.05 in 10.0 mi Calm Calm - N/A   Mostly Cloudy
2:15 AM 64.4 °F 60.8 °F 88% 30.05 in 9.0 mi Calm Calm - N/A   Overcast
2:35 AM 64.4 °F 60.8 °F 88% 30.06 in 10.0 mi NW 8.1 mph - N/A   Overcast
2:55 AM 62.6 °F 59.0 °F 88% 30.07 in 10.0 mi NW 5.8 mph - N/A   Overcast
3:15 AM 62.6 °F 57.2 °F 82% 30.07 in 10.0 mi NNW 5.8 mph - N/A   Overcast
3:35 AM 62.6 °F 57.2 °F 82% 30.07 in 10.0 mi NW 3.5 mph - N/A   Overcast
3:55 AM 62.6 °F 57.2 °F 82% 30.08 in 10.0 mi NW 3.5 mph - N/A   Overcast
4:15 AM 62.6 °F 57.2 °F 82% 30.08 in 10.0 mi NNW 4.6 mph - N/A   Overcast
4:35 AM 62.6 °F 57.2 °F 82% 30.09 in 10.0 mi NW 4.6 mph - N/A   Overcast
4:55 AM 60.8 °F 57.2 °F 88% 30.10 in 10.0 mi NNW 3.5 mph - N/A   Overcast
5:15 AM 60.8 °F 57.2 °F 88% 30.11 in 10.0 mi NNW 4.6 mph - N/A   Overcast
5:35 AM 60.8 °F 57.2 °F 88% 30.12 in 9.0 mi North 8.1 mph - N/A   Overcast
5:55 AM 60.8 °F 57.2 °F 88% 30.13 in 8.0 mi North 8.1 mph - N/A   Overcast
6:15 AM 60.8 °F 57.2 °F 88% 30.14 in 9.0 mi North 5.8 mph - N/A   Overcast
6:35 AM 59.0 °F 57.2 °F 94% 30.14 in 5.0 mi North 5.8 mph - N/A   Overcast
6:55 AM 60.8 °F 57.2 °F 88% 30.15 in 9.0 mi Calm Calm - N/A   Overcast
7:15 AM 60.8 °F 57.2 °F 88% 30.17 in 10.0 mi North 6.9 mph - N/A   Overcast
7:35 AM 60.8 °F 57.2 °F 88% 30.18 in 9.0 mi North 8.1 mph - N/A   Overcast
7:55 AM 59.0 °F 57.2 °F 94% 30.20 in 7.0 mi North 5.8 mph 19.6 mph N/A   Overcast
8:15 AM 59.0 °F 57.2 °F 94% 30.21 in 7.0 mi NNE 16.1 mph 21.9 mph N/A   Overcast
8:35 AM 59.0 °F 55.4 °F 88% 30.21 in 7.0 mi NNE 11.5 mph 19.6 mph N/A   Overcast
8:55 AM 57.2 °F 55.4 °F 94% 30.23 in 8.0 mi North 8.1 mph - N/A   Overcast
9:15 AM 57.2 °F 53.6 °F 88% 30.23 in 9.0 mi North 12.7 mph 18.4 mph N/A   Overcast
9:35 AM 57.2 °F 53.6 °F 88% 30.23 in 8.0 mi NNE 16.1 mph 20.7 mph N/A   Overcast
9:55 AM 59.0 °F 51.8 °F 77% 30.23 in 9.0 mi NE 17.3 mph 24.2 mph N/A   Mostly Cloudy
10:15 AM 59.0 °F 51.8 °F 77% 30.24 in 9.0 mi NNE 10.4 mph 25.3 mph N/A   Mostly Cloudy
10:35 AM 57.2 °F 51.8 °F 82% 30.26 in 10.0 mi NNE 15.0 mph 21.9 mph N/A   Overcast
10:55 AM 57.2 °F 50.0 °F 77% 30.28 in 9.0 mi NE 12.7 mph - N/A   Overcast
11:15 AM 57.2 °F 50.0 °F 77% 30.28 in 10.0 mi NNE 13.8 mph 18.4 mph N/A   Overcast
11:35 AM 57.2 °F 50.0 °F 77% 30.28 in 9.0 mi NNE 13.8 mph 19.6 mph N/A   Mostly Cloudy
11:55 AM 59.0 °F 50.0 °F 72% 30.28 in 10.0 mi NNE 13.8 mph 21.9 mph N/A   Mostly Cloudy
12:15 PM 60.8 °F 51.8 °F 72% 30.27 in 9.0 mi NE 9.2 mph - N/A   Scattered Clouds
12:35 PM 60.8 °F 51.8 °F 72% 30.28 in 9.0 mi NNE 11.5 mph - N/A   Mostly Cloudy
12:55 PM 60.8 °F 50.0 °F 68% 30.28 in 9.0 mi NNE 11.5 mph - N/A   Overcast
1:15 PM 59.0 °F 51.8 °F 77% 30.26 in 8.0 mi NNE 12.7 mph - N/A Thunderstorm Thunderstorm
1:35 PM 60.8 °F 51.8 °F 72% 30.25 in 8.0 mi NE 9.2 mph - N/A   Light Drizzle
1:55 PM 62.6 °F 51.8 °F 68% 30.24 in 10.0 mi NNE 9.2 mph - N/A   Clear
2:15 PM 62.6 °F 51.8 °F 68% 30.27 in 10.0 mi North 8.1 mph - N/A   Clear
2:35 PM 62.6 °F 51.8 °F 68% 30.27 in 9.0 mi NNE 8.1 mph - N/A   Partly Cloudy
2:55 PM 62.6 °F 50.0 °F 63% 30.26 in 10.0 mi North 6.9 mph - N/A   Partly Cloudy
3:15 PM 62.6 °F 50.0 °F 63% 30.22 in 10.0 mi NNE 13.8 mph 19.6 mph N/A   Clear
3:35 PM 62.6 °F 48.2 °F 59% 30.21 in 10.0 mi NNE 11.5 mph 21.9 mph N/A   Clear
3:55 PM 62.6 °F 48.2 °F 59% 30.20 in 10.0 mi NNE 18.4 mph 24.2 mph N/A   Clear
4:15 PM 62.6 °F 48.2 °F 59% 30.21 in 10.0 mi NNE 15.0 mph - N/A   Clear
4:35 PM 62.6 °F 48.2 °F 59% 30.21 in 9.0 mi NNE 9.2 mph 18.4 mph N/A   Clear
4:55 PM 62.6 °F 48.2 °F 59% 30.20 in 10.0 mi NE 13.8 mph 17.3 mph N/A   Clear
5:15 PM 62.6 °F 48.2 °F 59% 30.19 in 10.0 mi NNE 12.7 mph - N/A   Partly Cloudy
5:35 PM 60.8 °F 48.2 °F 63% 30.19 in 10.0 mi NNE 11.5 mph - N/A   Clear
5:55 PM 60.8 °F 48.2 °F 63% 30.21 in 10.0 mi NE 5.8 mph - N/A   Clear
6:15 PM 60.8 °F 48.2 °F 63% 30.21 in 10.0 mi North 5.8 mph - N/A   Partly Cloudy
6:35 PM 59.0 °F 48.2 °F 67% 30.21 in 10.0 mi NE 9.2 mph - N/A   Partly Cloudy
6:55 PM 59.0 °F 48.2 °F 67% 30.23 in 10.0 mi NNE 6.9 mph - N/A   Partly Cloudy
7:15 PM 59.0 °F 48.2 °F 67% 30.24 in 10.0 mi Calm Calm - N/A   Clear
7:35 PM 57.2 °F 46.4 °F 67% 30.24 in 10.0 mi Calm Calm - N/A   Clear
7:55 PM 57.2 °F 48.2 °F 72% 30.21 in 10.0 mi NNE 6.9 mph - N/A   Clear
8:15 PM 57.2 °F 48.2 °F 72% 30.25 in 10.0 mi Calm Calm - N/A   Clear
8:35 PM 57.2 °F 48.2 °F 72% 30.25 in 10.0 mi NNE 3.5 mph - N/A   Partly Cloudy
8:55 PM 55.4 °F 48.2 °F 77% 30.26 in 10.0 mi Calm Calm - N/A   Clear
9:15 PM 55.4 °F 48.2 °F 77% 30.26 in 10.0 mi Calm Calm - N/A   Clear
9:35 PM 55.4 °F 48.2 °F 77% 30.26 in 10.0 mi Calm Calm - N/A   Clear
9:55 PM 55.4 °F 48.2 °F 77% 30.26 in 10.0 mi Calm Calm - N/A   Clear
10:15 PM 55.4 °F 48.2 °F 77% 30.27 in 10.0 mi North 3.5 mph - N/A   Clear
10:35 PM 55.4 °F 48.2 °F 77% 30.28 in 10.0 mi Calm Calm - N/A   Partly Cloudy
10:55 PM 55.4 °F 48.2 °F 77% 30.27 in 10.0 mi North 3.5 mph - N/A   Mostly Cloudy
11:15 PM 55.4 °F 48.2 °F 77% 30.27 in 10.0 mi NNE 4.6 mph - N/A   Scattered Clouds
11:35 PM 55.4 °F 48.2 °F 77% 30.27 in 10.0 mi Calm Calm - N/A   Scattered Clouds
11:55 PM 53.6 °F 48.2 °F 82% 30.27 in 10.0 mi Calm Calm - N/A   Scattered Clouds